sat.trackr.live / text

‹ back to catalog

LEMUR-2-ANDIS

NORAD 42838 · 2017-042P

PAYLOAD ACTIVE UNKNOWN

§ Identity

Operator
Country
US
Launch date
2017-07-14
Launch site
TYMSC
Launch vehicle
Mass (kg)
RCS (m²)

Purposes: earth_obs

External: N2YO · Heavens-Above · Gunter

§ Orbital elements

Epoch: 2026-05-24T23:09:05.512032Z

Period
93.89 min
Inclination
97.3682°
Eccentricity
0.0009927
Mean motion
15.33780067 rev/d
Perigee alt
457.8 km
Apogee alt
471.3 km
Semi-major
6,842.7 km
B*
5.9375e-4
RAAN
325.8195°
Arg perigee
91.3981°
Mean anomaly
268.8399°
Rev number
48,489

§ Raw data

LEMUR-2-ANDIS1 42838U 17042P   26144.96464713  .00019374  00000+0  59375-3 0  99912 42838  97.3682 325.8195 0009927  91.3981 268.8399 15.33780067484891

JSON: /api/v1/satellites/42838 · /tle

For live sub-satellite position, see the globe view (requires WebGL).

§ Visibility from observer

Set your observer location to see the next 7 days of passes ≥ 10°. The values pass through the URL so the page stays shareable.

No JS? Fill the form by hand. The geolocation button needs JavaScript.